Stations météo

réclame
Mon MeteoGroup
Eskilstuna, Suède (2449): Température de l'air & dewpoint: 15.10.2017 13:00:00 - 21.10.2017 13:00:00 (CEST)Eskilstuna, Suède (2449): Vitesse du vent & gusts: 15.10.2017 13:00:00 - 21.10.2017 13:00:00 (CEST)Eskilstuna, Suède (2449): Direction du vent: 15.10.2017 13:00:00 - 21.10.2017 13:00:00 (CEST)Eskilstuna, Suède (2449): reduced air pressure: 15.10.2017 13:00:00 - 21.10.2017 13:00:00 (CEST)Eskilstuna, Suède (2449): visibility: 15.10.2017 13:00:00 - 21.10.2017 13:00:00 (CEST)Eskilstuna, Suède (2449): Quantités de précipitations: 15.10.2017 13:00:00 - 21.10.2017 13:00:00 (CEST)
Date & Time tt [°C] td [°C] ff [km/h] ff [knt] fx [km/h] fx [knt] dd ppp [hPa] vv [km] rr [mm]
21.10.2017 13:00:00 9,7 3,9 15 8 27 15 E 1022,4 24 0,0
21.10.2017 12:00:00 9,1 4,5 15 8 24 13 ENE 1022,7 16 0,0
21.10.2017 11:00:00 8,3 5,4 13 7 23 12 ENE 1022,7 34 0,0
21.10.2017 10:00:00 6,2 5,0 12 7 18 10 E 1022,5 43 0,0
21.10.2017 09:00:00 4,3 4,0 8 5 16 9 ENE 1022,4 41 0,0
21.10.2017 08:00:00 3,6 3,3 8 5 16 9 ENE 1022,1 48 0,0
21.10.2017 07:00:00 3,6 3,5 9 5 15 8 ENE 1022,0 44 0,0
21.10.2017 06:00:00 3,5 2,9 8 4 15 8 ENE 1022,0 50 0,0
21.10.2017 05:00:00 3,6 2,9 7 4 14 7 ENE 1022,1 50 0,0
21.10.2017 04:00:00 4,7 3,4 9 5 14 8 E 1022,2 50 0,0
21.10.2017 03:00:00 4,2 3,0 8 5 16 9 ENE 1022,4 46 0,0
21.10.2017 02:00:00 4,5 3,2 9 5 16 9 E 1022,6 50 0,0
21.10.2017 01:00:00 4,8 3,5 10 5 16 9 E 1022,4 50 0,0
21.10.2017 00:00:00 3,7 3,1 5 3 16 9 ENE 1022,4 39 0,0
20.10.2017 23:00:00 4,5 3,3 8 4 16 9 ENE 1022,3 47 0,0
20.10.2017 22:00:00 5,9 3,9 9 5 16 9 E 1022,1 50 0,0
20.10.2017 21:00:00 5,6 3,9 9 5 14 7 ENE 1022,3 50 0,0
20.10.2017 20:00:00 5,5 3,8 6 4 13 7 E 1022,3 50 0,0
20.10.2017 19:00:00 5,3 3,8 6 3 11 6 E 1022,0 49 0,0
20.10.2017 18:00:00 5,2 3,4 7 4 16 9 ENE 1021,7 29 0,0
20.10.2017 17:00:00 7,8 4,2 7 4 22 12 E 1021,6 17 0,0
20.10.2017 16:00:00 9,1 4,3 9 5 22 12 E 1021,6 16 0,0
20.10.2017 15:00:00 9,1 4,9 10 5 18 10 ESE 1021,6 15 0,0
20.10.2017 14:00:00 8,6 4,6 10 5 18 10 E 1021,7 19 0,0
20.10.2017 13:00:00 9,3 5,1 10 5 18 10 E 1021,8 15 0,0
20.10.2017 12:00:00 8,2 5,8 8 5 18 10 E 1022,1 23 0,0
20.10.2017 11:00:00 7,2 6,1 7 4 10 6 ENE 1022,1 12 0,0
20.10.2017 10:00:00 2,3 2,2 0 0 2 1 N 1022,1 13 0,0
20.10.2017 09:00:00 -0,2 -0,3 0 0 2 1 N 1021,7 7 0,0
20.10.2017 08:00:00 -1,9 -2,0 0 0 1 1 N 1021,5 0,3 0,0
20.10.2017 07:00:00 -2,7 -2,8 0 0 0 0 N 1021,6 0,4 0,0
20.10.2017 06:00:00 -2,5 -2,6 0 0 0 0 N 1021,7 0,2 0,0
20.10.2017 05:00:00 -2,3 -2,4 0 0 0 0 N 1021,7 0,6 0,0
20.10.2017 04:00:00 -2,4 -2,5 0 0 0 0 N 1021,9 0,5 0,0
20.10.2017 03:00:00 -2,2 -2,3 0 0 0 0 N 1022,1 0,6 0,0
20.10.2017 02:00:00 -0,8 -0,9 0 0 0 0 N 1022,1 22 0,0
20.10.2017 01:00:00 -0,4 -0,5 0 0 0 0 N 1022,1 28 0,0
20.10.2017 00:00:00 -0,6 -0,7 0 0 2 1 N 1022,2 20 0,0
19.10.2017 23:00:00 -0,8 -0,9 0 0 3 2 N 1022,1 7 0,0
19.10.2017 22:00:00 -1,0 -1,1 0 0 3 2 N 1022,0 2,2 0,0
19.10.2017 21:00:00 -0,8 -0,9 0 0 4 2 N 1021,9 1,2 0,2
19.10.2017 20:00:00 0,7 0,6 0 0 4 2 N 1022,0 26 0,0
19.10.2017 19:00:00 1,8 1,7 0 0 3 2 N 1021,8 16 0,0
19.10.2017 18:00:00 3,0 2,3 0 0 8 4 N 1021,6 25 0,0
19.10.2017 17:00:00 7,5 2,2 2 1 8 4 WNW 1021,5 50 0,0
19.10.2017 16:00:00 9,4 2,7 5 3 7 4 NNW 1021,4 47 0,0
19.10.2017 15:00:00 9,4 2,9 4 2 7 4 WNW 1021,4 40 0,0
19.10.2017 14:00:00 8,8 2,6 3 2 10 6 ENE 1021,4 25 0,0
19.10.2017 13:00:00 8,8 2,4 2 1 10 6 WSW 1021,5 17 0,0
19.10.2017 12:00:00 7,8 2,7 4 2 9 5 N 1021,5 15 0,0
19.10.2017 11:00:00 6,6 2,7 4 2 9 5 N 1021,5 11 0,0
19.10.2017 10:00:00 2,2 2,1 0 0 7 4 N 1021,2 45 0,0
19.10.2017 09:00:00 -1,4 -1,5 0 0 7 4 N 1020,8 44 0,0
19.10.2017 08:00:00 -2,6 -2,7 0 0 7 4 N 1020,1 49 0,0
19.10.2017 07:00:00 -2,8 -2,9 0 0 3 2 N 1019,8 7 0,0
19.10.2017 06:00:00 -1,7 -1,8 0 0 3 2 N 1019,6 28 0,0
19.10.2017 05:00:00 -3,2 -3,3 0 0 4 2 N 1019,3 45 0,0
19.10.2017 04:00:00 -1,8 -1,9 0 0 4 2 N 1019,0 2,4 0,0
19.10.2017 03:00:00 -1,3 -1,4 0 0 3 2 N 1018,8 3,1 0,0
19.10.2017 02:00:00 -0,1 -0,2 0 0 5 3 N 1018,4 1,0 0,0
19.10.2017 01:00:00 -0,4 -0,5 0 0 6 4 N 1018,2 50 0,0
19.10.2017 00:00:00 4,4 2,6 4 2 13 7 SW 1017,9 40 0,0
18.10.2017 23:00:00 5,1 2,6 3 2 14 8 SW 1017,7 49 0,0
18.10.2017 22:00:00 4,4 2,3 10 5 19 11 W 1017,2 34 0,0
18.10.2017 21:00:00 6,1 2,9 11 6 19 11 W 1016,6 30 0,0
18.10.2017 20:00:00 4,8 2,7 11 6 16 9 W 1016,1 33 0,0
18.10.2017 19:00:00 6,6 4,1 7 4 10 5 SW 1015,5 28 0,0
18.10.2017 18:00:00 8,0 4,2 7 4 18 10 WSW 1014,9 50 0,0
18.10.2017 17:00:00 9,6 4,4 7 4 24 13 W 1014,4 37 0,0
18.10.2017 16:00:00 10,8 4,7 11 6 24 13 WSW 1013,9 32 0,0
18.10.2017 15:00:00 10,7 4,2 15 8 24 13 W 1013,5 36 0,0
18.10.2017 14:00:00 10,4 4,3 14 8 24 13 W 1013,2 26 0,0
18.10.2017 13:00:00 9,5 3,7 13 7 22 12 W 1012,8 20 0,0
18.10.2017 12:00:00 8,7 4,1 11 6 20 11 W 1012,4 16 0,0
18.10.2017 11:00:00 7,6 3,3 11 6 18 10 W 1012,0 19 0,0
18.10.2017 10:00:00 6,6 3,2 8 5 22 12 WNW 1011,4 50 0,0
18.10.2017 09:00:00 5,5 3,5 10 5 23 12 NNW 1010,3 50 0,0
18.10.2017 08:00:00 6,0 3,8 13 7 27 14 NNW 1009,7 17 0,0
18.10.2017 07:00:00 6,7 4,5 16 9 32 18 NNW 1008,3 20 0,0
18.10.2017 06:00:00 7,5 5,3 14 8 32 18 N 1006,9 29 0,0
18.10.2017 05:00:00 8,7 7,6 17 9 35 19 N 1005,4 50 0,0
18.10.2017 04:00:00 10,4 9,3 16 9 37 20 NNW 1003,9 23 0,2
18.10.2017 03:00:00 11,1 10,8 22 12 37 20 WSW 1002,6 26 0,0
18.10.2017 02:00:00 11,0 10,5 21 12 39 21 WSW 1002,3 14 1,0
18.10.2017 01:00:00 11,2 10,3 19 10 39 21 WSW 1002,3 9 0,2
18.10.2017 00:00:00 11,8 9,7 20 11 41 22 WSW 1002,5 18 0,0
17.10.2017 23:00:00 12,3 9,1 25 13 44 24 WSW 1002,7 18 0,0
17.10.2017 22:00:00 12,4 9,0 23 12 44 24 WSW 1003,2 14 0,0
17.10.2017 21:00:00 12,1 9,3 16 9 39 21 WSW 1003,6 15 0,0
17.10.2017 20:00:00 11,9 9,1 17 9 40 22 WSW 1003,6 14 0,0
17.10.2017 19:00:00 11,6 9,2 21 12 48 26 WSW 1003,9 14 0,0
17.10.2017 18:00:00 11,8 9,2 25 14 48 26 WSW 1004,5 17 0,0
17.10.2017 17:00:00 12,3 8,4 24 13 48 26 WSW 1004,9 26 0,0
17.10.2017 16:00:00 13,6 9,1 28 15 51 27 WSW 1005,3 22 0,0
17.10.2017 15:00:00 14,8 8,7 26 14 51 27 WSW 1005,4 17 0,0
17.10.2017 14:00:00 14,1 7,6 30 16 49 27 WSW 1005,7 16 0,0
17.10.2017 13:00:00 14,3 10,1 25 13 39 21 WSW 1006,3 13 0,0
17.10.2017 12:00:00 13,7 12,6 11 6 26 14 SW 1006,4 7 0,0
17.10.2017 11:00:00 12,0 11,5 10 5 26 14 SSW 1007,1 14 0,0
17.10.2017 10:00:00 10,6 10,3 8 5 24 13 S 1008,2 19 0,0
17.10.2017 09:00:00 10,1 9,8 5 3 19 10 SSE 1009,4 32 0,0
17.10.2017 08:00:00 9,8 9,7 4 2 12 7 SSE 1010,7 37 0,0
17.10.2017 07:00:00 9,5 9,4 4 2 12 7 S 1011,7 44 0,1
17.10.2017 06:00:00 9,4 9,3 6 3 11 6 ESE 1012,8 24 0,1
17.10.2017 05:00:00 9,3 9,2 0 0 10 5 N 1015,1 22 0,3
17.10.2017 04:00:00 9,6 9,5 0 0 18 10 N 1015,8 10 0,3
17.10.2017 03:00:00 10,0 9,4 6 4 18 10 WSW 1016,0 31 0,6
17.10.2017 02:00:00 10,8 9,2 10 6 16 9 W 1015,7 46 0,1
17.10.2017 01:00:00 10,6 10,4 6 4 12 7 WSW 1015,4 20 0,3
17.10.2017 00:00:00 10,7 10,1 4 2 12 7 SW 1015,0 20 0,0
16.10.2017 23:00:00 10,5 10,2 5 3 9 5 SW 1015,3 18 0,0
16.10.2017 22:00:00 11,0 9,9 2 1 11 6 SW 1015,1 17 0,1
16.10.2017 21:00:00 9,8 8,7 0 0 16 9 N 1015,6 13 0,0
16.10.2017 20:00:00 11,4 9,8 8 4 16 9 WSW 1014,5 11 0,0
16.10.2017 19:00:00 11,8 9,7 10 5 18 10 WSW 1014,0 12 0,0
16.10.2017 18:00:00 13,5 10,3 5 3 18 10 SW 1013,4 11 0,0
16.10.2017 17:00:00 14,8 10,4 9 5 29 16 WSW 1012,6 13 0,0
16.10.2017 16:00:00 15,7 9,4 17 9 31 17 WSW 1012,0 16 0,0
16.10.2017 15:00:00 16,4 9,6 21 11 35 19 W 1011,4 14 0,0
16.10.2017 14:00:00 16,4 10,0 23 12 42 23 W 1011,2 13 0,0
16.10.2017 13:00:00 16,1 10,0 23 12 42 23 W 1010,9 7 0,0
16.10.2017 12:00:00 15,8 10,3 27 15 42 23 W 1010,0 14 0,0
16.10.2017 11:00:00 14,8 10,8 22 12 42 23 W 1009,7 15 0,0
16.10.2017 10:00:00 14,4 10,8 24 13 53 29 WSW 1008,9 18 0,0
16.10.2017 09:00:00 14,4 10,8 27 15 53 29 WSW 1008,6 17 0,0
16.10.2017 08:00:00 14,7 10,9 33 18 61 33 WSW 1007,7 19 0,0
16.10.2017 07:00:00 15,4 11,2 36 19 61 33 WSW 1007,3 23 0,0
16.10.2017 06:00:00 15,1 12,0 18 10 40 22 WSW 1006,9 15 0,0
16.10.2017 05:00:00 15,2 11,8 21 11 40 22 SW 1007,2 15 0,0
16.10.2017 04:00:00 15,0 11,2 14 8 36 19 SW 1008,0 14 0,0
16.10.2017 03:00:00 14,7 11,3 12 6 29 16 SW 1009,0 34 0,0
16.10.2017 02:00:00 14,4 11,5 9 5 32 18 SW 1009,7 43 0,0
16.10.2017 01:00:00 13,7 11,4 12 6 32 18 SW 1010,3 41 0,0
16.10.2017 00:00:00 13,6 11,3 11 6 31 17 SW 1011,1 40 0,0
15.10.2017 23:00:00 13,7 10,7 11 6 31 17 SW 1012,0 41 0,0
15.10.2017 22:00:00 13,5 9,9 10 5 24 13 SSW 1012,8 34 0,0
15.10.2017 21:00:00 12,5 8,8 6 3 19 11 SSW 1013,7 20 0,0
15.10.2017 20:00:00 12,3 8,2 8 5 21 11 SSW 1014,8 18 0,0
15.10.2017 19:00:00 12,1 8,2 8 4 21 11 SSW 1015,3 17 0,0
15.10.2017 18:00:00 12,0 7,3 7 4 16 9 SSW 1015,8 16 0,0
15.10.2017 17:00:00 12,3 7,6 5 3 24 13 SSW 1016,9 13 0,0
15.10.2017 16:00:00 12,7 6,1 7 4 24 13 SW 1017,1 15 0,0
15.10.2017 15:00:00 13,5 7,5 10 5 24 13 WSW 1017,4 17 0,0
15.10.2017 14:00:00 13,3 6,9 15 8 31 17 W 1017,7 16 0,0
15.10.2017 13:00:00 13,5 5,9 14 8 31 17 W 1017,5 15 0,0

tt = Température de l'air
td = dewpoint
ff = Vitesse du vent
fx = gusts
dd = Direction du vent
ppp = reduced air pressure
vv = visibility
rr = Quantités de précipitations

stations d'obs. à proximité